Regional Weather Roundup
Issued by NWS

Home | Current Version | Previous Version | Text Only | Print | Product List | Glossary On
Versions: 1 2 3 4 5 6 7 8 9 10 11 12 13 14 15 16 17 18 19 20 21 22 23 24 25 26 27 28 29 30 31 32 33 34 35 36 37 38 39 40 41 42 43 44 45 46 47 48 49 50
000
ASUS43 KDMX 201107
RWRIA

WEATHER ROUNDUP FOR IOWA
NATIONAL WEATHER SERVICE DES MOINES IA
600 AM CDT MON APR 20 2015

NOTE: "FAIR" INDICATES FEW OR NO CLOUDS BELOW 12,000 FEET WITH NO
SIGNIFICANT WEATHER AND/OR OBSTRUCTIONS TO VISIBILITY.

* - THESE STATIONS ARE NOT NWS STATIONS...THUS NOT UNDER NWS
QUALITY CONTROL.  THEY ALSO DO NOT REPORT WEATHER SUCH
AS PRECIPITATION OR FOG.

IAZ001>003-012>014-020>022-031>034-043>046-201200-
   NORTHWEST IOWA

CITY           SKY/WX    TMP DP  RH WIND       PRES   REMARKS
CARROLL *      MOCLDY    39  36  87 NW17      29.67S WCI  30
CHEROKEE *     PTCLDY    39  36  87 NW12G17   29.69S WCI  32
DENISON *      CLEAR     39  37  93 NW17      29.69S WCI  30
LE MARS *      CLOUDY    41  34  75 NW12G21   29.74S
ORANGE CITY *  MOCLDY    36  32  87 NW13G18   29.70S WCI  27
SHELDON *      PTCLDY    37  36  93 NW15G22   29.67S WCI  28
SIOUX CITY     PTCLDY    42  33  70 NW18      29.74S
SPENCER        CLOUDY    40  34  79 NW16G35   29.65S WCI  31
STORM LAKE *   CLOUDY    39  36  87 NW18G25   29.67F WCI  30
$$

IAZ055>058-069>071-079>083-090>094-201200-
   SOUTHWEST IOWA

CITY           SKY/WX    TMP DP  RH WIND       PRES   REMARKS
ATLANTIC *     CLEAR     39  37  93 NW12G17   29.71S WCI  32
AUDUBON *      CLEAR     39  36  87 NW10      29.69S WCI  32
CLARINDA *     CLEAR     43  36  75 NW14G21   29.76R
COUNCIL BLFS * CLEAR     41  36  81 NW15      29.75S
CRESTON *      CLEAR     39  37  93 NW15G21   29.69R WCI  31
HARLAN  *        N/A     39  39 100 NW14      29.74F WCI  31
LAMONI         MOCLDY    43  37  79 NW16      29.67R
RED OAK *      CLEAR     41  36  81 NW10G17   29.74S
SHENANDOAH *   CLEAR     41  36  81 NW12      29.77S
$$

IAZ047>049-059>061-072>074-084-201200-
   CENTRAL IOWA

CITY           SKY/WX    TMP DP  RH WIND       PRES   REMARKS
AMES           MOCLDY    43  36  76 NW23      29.60S
ANKENY *       CLOUDY    43  37  81 NW18G28   29.61S
CHARITON *     CLOUDY    45  37  76 NW21G31   29.62S
DES MOINES     PTCLDY    44  36  73 NW21G32   29.62R
GRINNELL*      PTCLDY    41  37  87 NW23G31   29.56R
KNOXVILLE *    CLOUDY    45  37  76 NW20G29   29.59R
MARSHALLTOWN   CLOUDY    42  37  82 NW23      29.55R
PELLA *        PTCLDY    45  41  87 NW15G25   29.60R
PERRY *          N/A     41  37  87 NW14      29.65S
$$

IAZ004>006-015-016-023>025-035-036-201200-
   NORTH CENTRAL IOWA

CITY           SKY/WX    TMP DP  RH WIND       PRES   REMARKS
ALGONA *       PTCLDY    39  36  87 NW14G22   29.61S WCI  31
CLARION *      MOCLDY    39  37  93 NW23      29.58S WCI  29
ESTHERVILLE    CLOUDY    38  34  85 NW22G33   29.61S WCI  27
FORT DODGE *   PTCLDY    41  34  75 NW14G20   29.62S
MASON CITY     MOCLDY    39  33  79 NW23G35   29.55S WCI  28
FOREST CITY *  CLEAR     36  32  87 NW18G24   29.56R WCI  25
IOWA FALLS *   MOCLDY    41  36  81 NW21G31   29.57S
$$

IAZ007>011-017>019-026>030-037>042-050>054-066-201200-
   NORTHEAST IOWA

CITY           SKY/WX    TMP DP  RH WIND       PRES   REMARKS
CEDAR RAPIDS   LGT RAIN  43  41  93 NW21G33   29.46S
CHARLES CITY * CLOUDY    39  36  87 NW22G35   29.50R WCI  29
CLINTON *      CLOUDY    45  39  81 NW26G32   29.39S
DECORAH *      LGT RAIN  39  39 100 NW16G31   29.41S WCI  30
DUBUQUE        CLOUDY    43  42  97 NW20G29   29.37R
MONTICELLO *   LGT RAIN  41  41 100 NW23G35   29.42R
OELWEIN *      LGT RAIN  41  39  93 NW23G30   29.45F
WATERLOO       CLOUDY    41  35  79 NW23G35   29.49R
$$

IAZ064-065-067-068-078-201200-
   EAST CENTRAL IOWA

CITY           SKY/WX    TMP DP  RH WIND       PRES   REMARKS
DAVENPORT      CLOUDY    45  40  82 NW29G37   29.40R
IOWA CITY      CLOUDY    45  40  82 NW15G33   29.48R
MT. PLEASANT * CLOUDY    46  37  71 NW20G32   29.51R
MUSCATINE *    CLOUDY    46  41  81 NW25G38   29.47R
QUAD CITIES    CLOUDY    47  41  80 W21G31    29.41R
$$

IAZ062-063-075>077-085>089-095>099-201200-
   SOUTHEAST IOWA

CITY           SKY/WX    TMP DP  RH WIND       PRES   REMARKS
BURLINGTON     CLOUDY    47  42  83 NW22G30   29.49R
FAIRFIELD *    MOCLDY    45  37  76 NW28G36   29.53R
FORT MADISON * CLOUDY    45  43  93 W16G28    29.52R
KEOKUK *       CLOUDY    48  41  76 NW15G25   29.53R
OSKALOOSA *      N/A     43  37  81 NW24G30   29.57R
CENTERVILLE *  CLOUDY    45  39  81 W18G26    29.62S
OTTUMWA        CLEAR     43  37  79 NW22G38   29.56S
WASHINGTON *   CLOUDY    46  43  87 NW21G32   29.50S
$$

ABBREVIATIONS USED IN REMARKS
   TC - TEMPERATURES IN CELSIUS
  WCI - WIND CHILL INDEX
   HX - HEAT INDEX
  VSB - VISIBILITY
$$




USA.gov is the U.S. government's official web portal to all federal, state and local government web resources and services.